EW2631 Weather Reports


time (UTC)temp
C
wind
direction
speed
KPH
gust
KPH
rain 1hr
cm
rain 24hr
cm
rain mn
cm
humidity
%
barometer
mb
20260906190044 18 103 0.0 3.2 0.28 0.28 0.28 94 1015.5
20260906184544 18 89 0.0 4.8 0.28 0.28 0.28 95 1015.5
20260906183053 18 68 1.6 9.7 0.25 0.25 0.25 94 1015.7
20260906181546 20 64 4.8 9.7 0.00 0.00 0.00 90 1016.0
20260906180038 20 49 3.2 12.9 0.00 0.00 0.00 88 1015.7
20260906174531 23 60 4.8 14.5 0.00 0.00 0.00 78 1016.0
20260906173028 27 143 0.0 1.6 0.00 0.00 0.00 84 1014.8
20260906171526 27 143 0.0 3.2 0.00 0.00 0.00 85 1014.3
20260906170024 27 309 0.0 6.4 0.00 0.00 0.00 86 1013.9
20260906164524 27 138 0.0 3.2 0.00 0.00 0.00 87 1014.5
20260906163028 27 146 0.0 6.4 0.00 0.00 0.00 87 1014.8
20260906161515 27 198 1.6 6.4 0.00 0.00 0.00 88 1014.5
20260906160113 26 135 0.0 4.8 0.00 0.00 0.00 89 1014.4
20260906154509 26 142 0.0 9.7 0.00 0.13 0.00 91 1014.3
20260906153006 25 146 0.0 12.9 0.00 0.13 0.00 92 1013.8
20260906151505 25 274 0.0 4.8 0.00 0.13 0.00 93 1014.0
20260906150002 25 133 0.0 8.0 0.00 0.41 0.00 94 1013.5
20260906144608 25 97 0.0 6.4 0.00 0.41 0.00 95 1013.5
20260906143105 25 125 1.6 9.7 0.00 0.41 0.00 95 1013.6
20260906141558 24 127 1.6 8.0 0.00 0.41 0.00 96 1013.9
20260906140105 24 131 0.0 9.7 0.00 0.41 0.00 97 1014.0
20260906134608 24 75 0.0 6.4 0.00 0.51 0.00 97 1013.9
20260906133055 23 104 1.6 9.7 0.00 0.51 0.00 98 1013.8
20260906131550 23 143 0.0 4.8 0.00 0.51 0.00 98 1013.8
20260906124546 23 128 0.0 4.8 0.00 5.97 0.00 98 1013.7
20260906123046 23 66 0.0 4.8 0.00 5.97 0.00 98 1013.6
20260906121547 23 146 0.0 6.4 0.00 5.97 0.00 99 1013.5
20260906120041 23 148 0.0 4.8 0.00 5.97 0.00 99 1013.4
20260906114540 23 155 0.0 4.8 0.00 6.17 0.00 99 1013.3
20260906113040 23 153 0.0 3.2 0.00 6.17 0.00 99 1013.1
20260906111538 22 120 0.0 4.8 0.00 6.17 0.00 99 1013.0
20260906110036 22 71 0.0 4.8 0.00 6.17 0.00 99 1013.0
20260906104536 22 72 0.0 4.8 0.00 6.17 0.00 98 1012.9
20260906103035 22 144 0.0 3.2 0.00 6.17 0.00 98 1012.9
20260906101535 22 144 0.0 1.6 0.00 6.17 0.00 98 1013.0
20260906100040 22 144 0.0 0.0 0.00 6.17 0.00 98 1012.9
20260906094532 22 144 0.0 1.6 0.00 6.17 0.00 97 1013.0
20260906093046 23 144 0.0 1.6 0.00 6.17 0.00 98 1013.1
20260906091531 23 144 0.0 1.6 0.00 6.17 0.00 98 1013.2
20260906090030 23 143 0.0 3.2 0.00 6.17 0.00 98 1013.2
20260906084529 23 138 0.0 1.6 0.00 6.17 0.00 98 1013.1
20260906083029 23 130 0.0 3.2 0.00 6.17 0.00 98 1013.0
20260906081544 22 133 0.0 1.6 0.00 6.17 0.00 98 1012.8
20260906080027 22 133 0.0 1.6 0.00 6.17 0.00 98 1012.5
20260906074526 22 133 0.0 1.6 0.00 6.17 0.00 98 1012.7
20260906073041 23 133 0.0 1.6 0.00 6.17 0.00 98 1012.9
20260906071523 23 133 0.0 1.6 0.00 6.17 0.00 98 1012.9
20260906070034 23 133 0.0 3.2 0.00 6.17 0.00 98 1012.9
20260906064521 23 133 0.0 0.0 0.00 6.17 0.00 98 1013.0
20260906063021 23 133 0.0 0.0 0.00 6.17 0.00 97 1013.2
20260906061519 23 133 0.0 0.0 0.00 6.17 0.00 97 1013.3
20260906060017 23 133 0.0 1.6 0.00 6.17 0.00 97 1013.1
20260906054521 23 133 0.0 3.2 0.00 6.17 0.00 98 1013.2
20260906053013 22 133 0.0 1.6 0.00 6.17 0.00 97 1013.2
20260906051515 22 133 0.0 1.6 0.00 6.17 0.00 97 1013.2
20260906050006 22 133 0.0 1.6 0.00 6.17 6.17 97 1013.2
20260906044505 22 133 0.0 0.0 0.00 6.17 6.17 96 1013.3
20260906043005 22 133 0.0 0.0 0.00 6.17 6.17 96 1013.5
20260906041505 23 133 0.0 0.0 0.00 6.17 6.17 95 1013.3
20260906040004 23 133 0.0 0.0 0.00 6.17 6.17 94 1013.4
20260906034503 23 133 0.0 1.6 0.00 6.17 6.17 94 1013.3
20260906033003 23 133 0.0 1.6 0.00 6.17 6.17 94 1013.2
20260906031502 23 133 0.0 1.6 0.00 6.17 6.17 94 1013.2
20260906030002 23 133 0.0 1.6 0.00 6.17 6.17 93 1013.0
20260906024502 23 134 0.0 1.6 0.00 6.17 6.17 93 1012.9
20260906023000 23 134 0.0 1.6 0.00 6.17 6.17 92 1012.8
20260906021500 23 99 0.0 1.6 0.00 6.17 6.17 91 1012.8
20260906020100 23 99 0.0 1.6 0.00 6.17 6.17 91 1012.6
20260906014623 23 99 0.0 3.2 0.00 6.17 6.17 90 1012.4
20260906013100 24 99 0.0 3.2 0.00 6.17 6.17 89 1012.3
20260906011600 24 99 0.0 1.6 0.00 6.17 6.17 88 1012.2
20260906010058 25 99 0.0 1.6 0.00 6.17 6.17 86 1012.1
20260906004609 25 99 0.0 3.2 0.00 6.17 6.17 84 1012.0
20260906003058 26 97 0.0 4.8 0.00 6.17 6.17 81 1011.8
20260906001556 26 124 0.0 4.8 0.00 6.17 6.17 79 1011.8
20260906000106 27 100 1.6 4.8 0.00 6.17 6.17 75 1011.8
20260905234557 28 120 0.0 4.8 0.00 6.17 6.17 73 1011.9
20260905233056 28 107 1.6 6.4 0.00 6.17 6.17 70 1011.9
20260905231554 29 87 0.0 9.7 0.00 6.17 6.17 69 1011.8
20260905230051 29 74 1.6 12.9 0.00 6.17 6.17 67 1011.7
20260905224603 29 133 1.6 9.7 0.00 6.17 6.17 66 1011.8
20260905223048 30 131 0.0 8.0 0.00 6.17 6.17 64 1011.6
20260905221547 30 76 3.2 9.7 0.00 6.17 6.17 62 1011.5
20260905220045 30 83 1.6 11.3 0.00 6.17 6.17 59 1011.3
20260905214546 30 158 1.6 16.1 0.00 6.17 6.17 58 1011.3
20260905213043 31 129 3.2 11.3 0.00 6.17 6.17 56 1011.4
20260905211543 31 136 1.6 11.3 0.00 6.17 6.17 54 1011.3
20260905210041 31 126 1.6 11.3 0.00 6.17 6.17 54 1011.2
20260905204540 31 139 1.6 8.0 0.00 6.17 6.17 55 1010.9
20260905203039 31 103 1.6 9.7 0.00 6.17 6.17 56 1010.9
20260905201537 30 127 1.6 9.7 0.00 6.17 6.17 59 1010.8
20260905200045 30 113 1.6 12.9 0.00 6.17 6.17 59 1010.8
20260905194534 30 98 3.2 12.9 0.00 6.17 6.17 61 1010.8
20260905193033 30 131 3.2 9.7 0.00 6.17 6.17 59 1010.8
20260905191537 30 122 1.6 11.3 0.00 6.17 6.17 59 1010.8